Waarnemingen

Advertentie
Mijn weer
Ritsem, Zweden (2013): temperatuur & dauwpunt: 22.01.2021 08:00:00 - 28.01.2021 08:00:00 (CET)Ritsem, Zweden (2013): windsnelheid & windstoten: 22.01.2021 08:00:00 - 28.01.2021 08:00:00 (CET)Ritsem, Zweden (2013): windrichting: 22.01.2021 08:00:00 - 28.01.2021 08:00:00 (CET)Ritsem, Zweden (2013): luchtdruk: 22.01.2021 08:00:00 - 28.01.2021 08:00:00 (CET)Ritsem, Zweden (2013): zicht: 22.01.2021 08:00:00 - 28.01.2021 08:00:00 (CET)Ritsem, Zweden (2013): neerslag: 22.01.2021 08:00:00 - 28.01.2021 08:00:00 (CET)
Datum & Tijd tt [°C] td [°C] ff [km/u] ff [kn] fx [km/u] fx [kn] dd ppp [hPa] vv [km] rr [mm]
28.01.2021 08:00:00 -11,1 -14,8 22 12 40 21 OZO 1006,4 50 0,0
28.01.2021 07:00:00 -10,9 -14,8 16 9 38 21 OZO 1006,4 50 0,0
28.01.2021 06:00:00 -10,7 -14,6 21 12 34 18 OZO 1006,3 50 0,0
28.01.2021 05:00:00 -10,8 -14,2 18 10 32 17 OZO 1006,3 50 0,0
28.01.2021 04:00:00 -10,4 -14,0 16 9 32 18 OZO 1006,4 50 0,0
28.01.2021 03:00:00 -10,2 -13,8 16 8 34 18 OZO 1006,6 50 0,0
28.01.2021 02:00:00 -10,1 -13,8 18 10 37 20 OZO 1006,7 50 0,0
28.01.2021 01:00:00 -10,2 -13,9 19 10 37 20 O 1006,8 50 0,0
28.01.2021 00:00:00 -10,3 -14,0 24 13 38 21 O 1006,9 50 0,0
27.01.2021 23:00:00 -10,5 -14,1 20 11 36 19 OZO 1007,0 50 0,0
27.01.2021 22:00:00 -10,6 -13,8 16 9 32 17 OZO 1006,9 50 0,0
27.01.2021 21:00:00 -10,5 -13,4 17 9 31 17 OZO 1007,0 50 0,0
27.01.2021 20:00:00 -11,3 -13,9 4 2 12 7 NNO 1007,2 47 0,0
27.01.2021 19:00:00 -12,1 -14,7 7 4 13 7 ONO 1007,2 50 0,0
27.01.2021 18:00:00 -12,6 -14,6 3 2 10 5 ONO 1007,3 27 -
27.01.2021 17:00:00 -12,8 -14,6 4 2 11 6 NO 1007,4 31 0,0
27.01.2021 16:00:00 -14,7 -16,7 3 1 9 5 NNW 1007,8 15 0,0
27.01.2021 15:00:00 -13,7 -15,4 2 1 6 3 NW 1007,6 16 0,0
27.01.2021 14:00:00 -12,6 -14,7 3 1 8 4 WNW 1007,7 2,1 0,0
27.01.2021 13:00:00 -12,9 -15,0 4 2 9 5 N 1007,7 6 0,0
27.01.2021 12:00:00 -13,3 -15,3 2 1 10 5 NNW 1007,9 13 0,0
27.01.2021 11:00:00 -12,9 -14,9 5 3 13 7 NO 1007,8 25 0,0
27.01.2021 10:00:00 -13,9 -15,6 6 3 11 6 ONO 1007,9 3,7 0,0
27.01.2021 09:00:00 -14,4 -16,2 4 2 11 6 N 1007,8 8 0,0
27.01.2021 08:00:00 -15,7 -17,6 5 3 7 4 W 1008,1 47 0,0
27.01.2021 07:00:00 -15,2 -17,1 0 0 9 5 N 1008,4 50 0,0
27.01.2021 06:00:00 -15,2 -17,3 4 2 11 6 NO 1008,5 32 0,0
27.01.2021 05:00:00 -16,1 -18,2 3 1 8 4 NO 1008,6 18 0,0
27.01.2021 04:00:00 -17,1 -19,3 4 2 7 4 NW 1008,9 27 0,0
27.01.2021 03:00:00 -18,9 -21,9 4 2 6 3 W 1009,3 15 0,0
27.01.2021 02:00:00 -18,5 -20,8 2 1 6 3 N 1009,4 26 0,0
27.01.2021 01:00:00 -19,7 -22,1 4 2 7 4 W 1009,5 50 0,0
27.01.2021 00:00:00 -19,5 -21,9 2 1 13 7 W 1009,9 47 0,0
26.01.2021 23:00:00 -20,6 -23,3 3 1 6 4 ONO 1010,1 50 0,0
26.01.2021 22:00:00 -20,1 -22,7 3 1 9 5 W 1010,0 49 0,0
26.01.2021 21:00:00 -20,8 -23,5 3 2 6 3 WZW 1010,1 50 0,0
26.01.2021 20:00:00 -20,2 -22,5 0 0 4 2 N 1009,9 50 0,0
26.01.2021 19:00:00 -20,9 -23,6 0 0 4 2 N 1010,0 50 0,0
26.01.2021 18:00:00 -21,2 -24,0 0 0 4 2 N 1009,8 50 0,0
26.01.2021 17:00:00 -20,6 -23,4 0 0 6 3 N 1009,8 50 0,0
26.01.2021 16:00:00 -20,8 -23,5 3 1 5 3 O 1009,9 50 0,0
26.01.2021 15:00:00 -20,9 -23,4 0 0 6 3 N 1009,4 50 0,0
26.01.2021 14:00:00 -20,5 -23,3 2 1 5 3 WZW 1008,9 10 0,0
26.01.2021 13:00:00 -20,9 -23,4 0 0 5 3 N 1008,7 29 0,0
26.01.2021 12:00:00 -20,2 -22,8 0 0 3 2 N 1008,5 50 -
26.01.2021 11:00:00 -20,1 -22,7 0 0 4 2 N 1008,3 6 0,0
26.01.2021 10:00:00 -20,6 -22,9 3 1 5 3 W 1008,2 50 0,0
26.01.2021 09:00:00 -20,1 -22,5 2 1 5 3 NW 1007,7 50 0,0
26.01.2021 08:00:00 -21,0 -23,5 0 0 4 2 N 1007,4 50 0,0
26.01.2021 07:00:00 -21,1 -23,5 3 2 4 2 WNW 1007,3 50 0,0
26.01.2021 06:00:00 -21,4 -23,9 0 0 4 2 N 1007,3 50 0,0
26.01.2021 05:00:00 -21,3 -23,8 2 1 4 2 WNW 1007,0 50 0,0
26.01.2021 04:00:00 -21,0 -23,7 0 0 4 2 N 1006,7 50 0,0
26.01.2021 03:00:00 -21,5 -24,2 0 0 5 3 N 1006,8 50 0,0
26.01.2021 02:00:00 -21,0 -23,5 3 1 5 3 NNO 1006,5 48 0,0
26.01.2021 01:00:00 -21,1 -23,6 2 1 5 3 W 1006,6 50 0,0
26.01.2021 00:00:00 -20,2 -22,8 0 0 6 3 N 1006,4 50 0,0
25.01.2021 23:00:00 -20,9 -23,4 0 0 3 2 N 1006,5 50 0,0
25.01.2021 22:00:00 -20,8 -23,3 2 1 4 2 NNW 1006,0 50 0,0
25.01.2021 21:00:00 -19,3 -21,5 0 0 6 3 N 1005,5 50 0,0
25.01.2021 20:00:00 -20,5 -23,0 0 0 5 3 N 1005,3 50 0,0
25.01.2021 19:00:00 -19,4 -22,0 5 3 8 4 NNO 1005,0 50 0,0
25.01.2021 18:00:00 -20,2 -22,8 0 0 9 5 N 1005,0 46 0,0
25.01.2021 17:00:00 -19,5 -21,9 0 0 4 2 N 1004,7 50 0,0
25.01.2021 16:00:00 -18,5 -20,9 3 2 11 6 NW 1004,1 18 0,0
25.01.2021 15:00:00 -17,9 -20,1 6 3 15 8 NNO 1003,8 50 0,0
25.01.2021 14:00:00 -16,2 -18,6 11 6 17 9 NNO 1003,4 50 0,0
25.01.2021 13:00:00 -17,0 -19,3 3 2 8 4 ZW 1003,2 50 0,0
25.01.2021 12:00:00 -17,0 -19,3 4 2 8 4 O 1003,0 50 -
25.01.2021 11:00:00 -16,1 -18,5 3 1 4 2 WZW 1002,5 50 0,0
25.01.2021 10:00:00 -17,6 -19,8 0 0 8 4 N 1002,6 50 0,0
25.01.2021 09:00:00 -17,4 -19,6 4 2 11 6 ONO 1002,0 50 0,0
25.01.2021 08:00:00 -17,9 -20,4 5 3 8 4 NNO 1001,5 50 0,0
25.01.2021 07:00:00 -16,3 -18,7 4 2 6 3 NNW 1001,0 15 0,0
25.01.2021 06:00:00 -15,7 -18,2 0 0 5 3 N 1000,8 7 0,0
25.01.2021 05:00:00 -15,8 -18,3 2 1 8 5 ZZW 1000,5 4,7 0,0
25.01.2021 04:00:00 -16,1 -18,5 5 3 9 5 ZZW 1000,4 4,6 0,0
25.01.2021 03:00:00 -16,5 -19,0 4 2 6 4 W 999,8 9 0,0
25.01.2021 02:00:00 -16,7 -19,2 4 2 8 4 WNW 999,5 9 0,0
25.01.2021 01:00:00 -16,5 -19,1 2 1 7 4 ZW 999,1 6 0,0
25.01.2021 00:00:00 -16,7 -19,3 4 2 9 5 W 998,8 8 0,0
24.01.2021 23:00:00 -16,7 -19,6 5 3 8 5 WNW 998,7 7 0,0
24.01.2021 22:00:00 -16,6 -19,7 5 3 7 4 NW 998,4 6 0,0
24.01.2021 21:00:00 -16,6 -19,8 0 0 12 6 N 998,2 3,8 0,0
24.01.2021 20:00:00 -16,8 -20,0 3 2 12 6 NO 998,0 6 0,0
24.01.2021 19:00:00 -16,6 -20,3 8 5 18 10 ZZO 997,7 7 0,0
24.01.2021 18:00:00 -17,3 -20,7 7 4 14 7 NNO 997,6 37 0,0
24.01.2021 17:00:00 -17,2 -21,2 4 2 11 6 Z 997,7 50 0,0
24.01.2021 16:00:00 -17,4 -21,1 5 3 9 5 ZZW 997,5 44 0,0
24.01.2021 15:00:00 -17,3 -21,3 6 4 18 10 ZO 997,3 37 0,0
24.01.2021 14:00:00 -17,1 -21,1 8 4 16 8 ZO 997,2 36 0,0
24.01.2021 13:00:00 -16,9 -20,6 2 1 14 8 ZO 996,9 50 0,0
24.01.2021 12:00:00 -16,7 -20,9 8 5 16 9 ZZO 996,9 50 0,0
24.01.2021 11:00:00 -16,9 -20,6 7 4 14 7 Z 996,8 42 0,0
24.01.2021 10:00:00 -17,5 -20,9 4 2 16 9 Z 996,3 50 0,0
24.01.2021 09:00:00 -17,5 -20,9 10 5 21 11 ZZO 996,1 47 0,0
24.01.2021 08:00:00 -17,7 -21,1 6 3 16 9 Z 995,8 24 0,0
24.01.2021 07:00:00 -17,8 -21,1 5 3 17 9 Z 995,6 35 0,0
24.01.2021 06:00:00 -18,1 -21,1 6 3 25 13 Z 995,4 25 0,0
24.01.2021 05:00:00 -17,7 -21,1 10 5 24 13 OZO 995,3 27 0,0
24.01.2021 04:00:00 -17,7 -20,9 11 6 35 19 ZO 995,3 11 0,1
24.01.2021 03:00:00 -17,4 -21,2 24 13 43 23 ZO 994,8 50 0,0
24.01.2021 02:00:00 -17,0 -20,8 18 10 30 16 ZZO 993,9 50 0,0
24.01.2021 01:00:00 -17,3 -21,1 12 6 29 16 ZZO 993,7 50 0,0
24.01.2021 00:00:00 -16,2 -20,2 14 8 37 20 ZZO 993,5 50 0,0
23.01.2021 23:00:00 -16,0 -19,9 14 7 37 20 ZO 993,8 14 -
23.01.2021 22:00:00 -16,2 -19,9 25 14 46 25 ZO 993,4 38 0,0
23.01.2021 21:00:00 -16,3 -19,9 15 8 32 18 ZO 993,2 50 0,0
23.01.2021 20:00:00 -16,4 -20,1 19 11 39 21 ZO 993,0 50 0,0
23.01.2021 19:00:00 -16,5 -20,2 13 7 33 18 ZO 993,0 50 0,0
23.01.2021 18:00:00 -16,7 -20,2 20 11 47 26 ZO 992,6 50 0,0
23.01.2021 17:00:00 -16,8 -20,3 23 13 42 23 ZO 993,0 19 0,0
23.01.2021 16:00:00 -16,5 -20,4 20 11 49 26 OZO 992,9 25 0,0
23.01.2021 15:00:00 -16,5 -20,2 29 16 57 31 OZO 992,7 18 0,0
23.01.2021 14:00:00 -16,4 -20,1 32 18 62 34 OZO 993,0 17 0,0
23.01.2021 13:00:00 -16,2 -20,1 32 17 60 33 OZO 992,7 26 0,0
23.01.2021 12:00:00 -16,1 -19,5 38 20 67 36 OZO 992,8 20 0,0
23.01.2021 11:00:00 -15,8 -19,2 43 23 67 36 OZO 992,3 11 0,0
23.01.2021 10:00:00 -15,6 -18,7 27 15 64 35 OZO 992,7 4,1 0,0
23.01.2021 09:00:00 -15,3 -18,0 39 21 64 35 OZO 992,4 4,5 0,0
23.01.2021 08:00:00 -15,0 -17,1 40 21 73 40 OZO 990,9 0,6 0,0
23.01.2021 07:00:00 -15,1 -17,2 39 21 72 39 OZO 991,7 0,8 0,0
23.01.2021 06:00:00 -15,0 -17,0 27 15 71 38 ZO 992,5 1,3 0,1
23.01.2021 05:00:00 -14,7 -16,9 27 14 56 30 OZO 993,0 1,3 0,1
23.01.2021 04:00:00 -14,7 -16,7 26 14 58 31 O 993,5 1,4 0,0
23.01.2021 03:00:00 -14,5 -16,5 25 14 53 29 OZO 994,1 1,1 0,1
23.01.2021 02:00:00 -14,8 -16,8 24 13 53 29 OZO 994,4 0,9 0,1
23.01.2021 01:00:00 -14,8 -16,9 24 13 52 28 OZO 995,2 1,0 0,0
23.01.2021 00:00:00 -14,8 -16,9 28 15 48 26 ZO 995,7 1,1 0,1
22.01.2021 23:00:00 -14,9 -17,1 19 11 60 32 OZO 996,2 1,9 0,1
22.01.2021 22:00:00 -15,0 -17,2 37 20 71 38 OZO 996,0 1,8 0,0
22.01.2021 21:00:00 -15,0 -17,4 40 22 68 37 OZO 996,0 1,7 0,0
22.01.2021 20:00:00 -15,0 -17,7 36 19 77 42 OZO 996,9 1,5 0,1
22.01.2021 19:00:00 -15,1 -17,5 43 23 84 46 ZO 996,2 1,0 0,0
22.01.2021 18:00:00 -15,0 -17,8 51 28 89 48 ZO 995,5 1,3 0,0
22.01.2021 17:00:00 -15,0 -18,0 47 25 78 42 ZO 995,5 1,8 0,0
22.01.2021 16:00:00 -15,1 -17,5 50 27 88 47 ZO 995,1 0,9 0,0
22.01.2021 15:00:00 -15,1 -17,5 44 24 82 44 ZO 995,1 1,2 0,1
22.01.2021 14:00:00 -15,0 -17,4 39 21 71 39 OZO 994,0 0,6 0,0
22.01.2021 13:00:00 -15,0 -17,5 11 6 50 27 NNO 995,3 1,1 0,2
22.01.2021 12:00:00 -15,0 -18,6 26 14 60 32 NNO 995,7 1,6 0,1
22.01.2021 11:00:00 -14,9 -20,0 31 17 63 34 N 996,1 6 0,0
22.01.2021 10:00:00 -14,9 -19,8 31 17 81 44 O 995,1 47 0,0
22.01.2021 09:00:00 -14,9 -20,0 49 26 90 49 OZO 993,9 12 0,0
22.01.2021 08:00:00 -14,8 -19,9 41 22 81 44 OZO 993,4 9 0,0

tt = temperatuur
td = dauwpunt
ff = windsnelheid
fx = windstoten
dd = windrichting
ppp = luchtdruk
vv = zicht
rr = neerslag

Weerstations in de omgeving